Radiance Of The Seas — C6SE7 — position and weather

sailwx.info

Track history (hours):
 
Tides and Currents Weather Stations Pressure Air Temp Water Temp Dewpoint Dewpoint Depression Visibility Wind Speed Wind Dir Waves Ship Positions

Radiance Of The Seas

Operator: Royal Caribbean Cruises Ltd

Last reported at 2017-Mar-19 06:33 UTC. Time now 2017-Mar-22 22:08 UTC.
Position S 37°29' E 176°25'.

Type: Passenger vessel. MMSI: 311319000.

Date/timePositionNaut miles runAvg speedWind from/ knotsBaromVisibWave heightAir tempDewpointWater temp
2017-Mar-19 06:33S 37°29' E 176°25'1514.8
2017-Mar-19 05:33S 37°37' E 176°10'2 1.5
2017-Mar-19 04:33S 37°39' E 176°11'0 0.0
2017-Mar-19 03:33S 37°39' E 176°11'0 0.0
2017-Mar-19 02:33S 37°39' E 176°11'0 0.0
2017-Mar-19 01:33S 37°39' E 176°11'0 0.0
2017-Mar-19 00:33S 37°39' E 176°11'0 0.0
2017-Mar-18 23:33S 37°39' E 176°11'0 0.0
2017-Mar-18 22:33S 37°39' E 176°11'0 0.0
2017-Mar-18 21:33S 37°39' E 176°11'0 0.0
2017-Mar-18 20:33S 37°39' E 176°11'0 0.0
2017-Mar-18 19:33S 37°39' E 176°11'0 0.0
2017-Mar-18 18:33S 37°39' E 176°11'1 1.4
2017-Mar-18 17:32S 37°37' E 176°10'1010.2
2017-Mar-18 16:31S 37°27' E 176°12'77 9.3
2017-Mar-18 08:12S 36°26' E 175°13'711.6
2017-Mar-18 07:34S 36°31' E 175°06'1211.6
2017-Mar-18 06:33S 36°39' E 174°56'1110.8
2017-Mar-18 05:33S 36°48' E 174°49'3 3.3
2017-Mar-18 04:30S 36°51' E 174°46'0 0.0
2017-Mar-18 03:30S 36°51' E 174°46'0 0.0
2017-Mar-18 02:30S 36°51' E 174°46'0 0.0
2017-Mar-18 01:30S 36°51' E 174°46'0 0.0
2017-Mar-18 00:30S 36°51' E 174°46'0 0.0
2017-Mar-17 23:30S 36°51' E 174°46'0 0.0
2017-Mar-17 22:30S 36°51' E 174°46'0 0.0
2017-Mar-17 21:30S 36°51' E 174°46'0 0.0
2017-Mar-17 20:30S 36°51' E 174°46'0 0.0
2017-Mar-17 19:30S 36°51' E 174°46'0 0.0
2017-Mar-17 18:30S 36°51' E 174°46'0 0.1
2017-Mar-17 17:30S 36°50' E 174°46'7 7.3
2017-Mar-17 16:33S 36°44' E 174°50'1414.3
2017-Mar-17 15:34S 36°32' E 174°59'1515.1
2017-Mar-17 14:34S 36°17' E 174°57'  
2017-Mar-13 17:00S 35°54' E 151°42'11356.7 080 / 231017.027.0 23.0 24.4
2017-Mar-13 15:00S 34°06' E 152°24'24218.6 090 / 181018.010.8 23.0 25.0
2017-Mar-13 02:00S 35°30' E 157°00'1111.5 040 / 141020.010.8 22.0 24.0
2017-Mar-13 01:00S 35°36' E 157°12'17119.0 050 / 181020.010.8 22.0 24.0
2017-Mar-12 16:00S 36°36' E 160°30'8721.7 070 / 81016.0 18.0 21.0
2017-Mar-12 12:00S 37°06' E 162°12'1615.6 180 / 91015.010.8 17.0 20.0
2017-Mar-12 11:00S 37°12' E 162°30'4020.0 190 / 161015.010.8 17.0 20.0
2017-Mar-12 09:00S 37°24' E 163°18'26819.1 200 / 271014.010.8 17.0 21.0
2017-Mar-11 19:00S 39°00' E 168°36'2019.6 270 / 5999.0 0.5 17.0 20.0
2017-Mar-11 18:00S 39°06' E 169°00'3517.3 040 / 5999.0 0.3 17.5 19.5
2017-Mar-11 16:00S 39°18' E 169°42'21319.3 998.0 17.0 19.0
2017-Mar-11 05:00S 40°36' E 174°00'80 2.2 150 / 301003.010.8 15.0 18.0
2017-Mar-09 16:00S 41°54' E 174°24'6015.0 080 / 201020.0 5.4 16.0
2017-Mar-09 12:00S 42°48' E 173°48'1514.9 1023.0 15.0 17.2
2017-Mar-09 11:00S 43°00' E 173°36'   010 / 181023.0 15.0 17.0
Track history (hours):
 
Tides and Currents Weather Stations Pressure Air Temp Water Temp Dewpoint Dewpoint Depression Visibility Wind Speed Wind Dir Waves Ship Positions

Radiance Of The Seas

Operator: Royal Caribbean Cruises Ltd

Last reported at 2017-Mar-19 06:33 UTC. Time now 2017-Mar-22 22:08 UTC.
Position S 37°29' E 176°25'.

Type: Passenger vessel. MMSI: 311319000.

Date/timePositionNaut miles runAvg speedWind from/ knotsBaromVisibWave heightAir tempDewpointWater temp
2017-Mar-19 06:33S 37°29' E 176°25'1514.8
2017-Mar-19 05:33S 37°37' E 176°10'2 1.5
2017-Mar-19 04:33S 37°39' E 176°11'0 0.0
2017-Mar-19 03:33S 37°39' E 176°11'0 0.0
2017-Mar-19 02:33S 37°39' E 176°11'0 0.0
2017-Mar-19 01:33S 37°39' E 176°11'0 0.0
2017-Mar-19 00:33S 37°39' E 176°11'0 0.0
2017-Mar-18 23:33S 37°39' E 176°11'0 0.0
2017-Mar-18 22:33S 37°39' E 176°11'0 0.0
2017-Mar-18 21:33S 37°39' E 176°11'0 0.0
2017-Mar-18 20:33S 37°39' E 176°11'0 0.0
2017-Mar-18 19:33S 37°39' E 176°11'0 0.0
2017-Mar-18 18:33S 37°39' E 176°11'1 1.4
2017-Mar-18 17:32S 37°37' E 176°10'1010.2
2017-Mar-18 16:31S 37°27' E 176°12'77 9.3
2017-Mar-18 08:12S 36°26' E 175°13'711.6
2017-Mar-18 07:34S 36°31' E 175°06'1211.6
2017-Mar-18 06:33S 36°39' E 174°56'1110.8
2017-Mar-18 05:33S 36°48' E 174°49'3 3.3
2017-Mar-18 04:30S 36°51' E 174°46'0 0.0
2017-Mar-18 03:30S 36°51' E 174°46'0 0.0
2017-Mar-18 02:30S 36°51' E 174°46'0 0.0
2017-Mar-18 01:30S 36°51' E 174°46'0 0.0
2017-Mar-18 00:30S 36°51' E 174°46'0 0.0
2017-Mar-17 23:30S 36°51' E 174°46'0 0.0
2017-Mar-17 22:30S 36°51' E 174°46'0 0.0
2017-Mar-17 21:30S 36°51' E 174°46'0 0.0
2017-Mar-17 20:30S 36°51' E 174°46'0 0.0
2017-Mar-17 19:30S 36°51' E 174°46'0 0.0
2017-Mar-17 18:30S 36°51' E 174°46'0 0.1
2017-Mar-17 17:30S 36°50' E 174°46'7 7.3
2017-Mar-17 16:33S 36°44' E 174°50'1414.3
2017-Mar-17 15:34S 36°32' E 174°59'1515.1
2017-Mar-17 14:34S 36°17' E 174°57'  
2017-Mar-13 17:00S 35°54' E 151°42'11356.7 080 / 231017.027.0 23.0 24.4
2017-Mar-13 15:00S 34°06' E 152°24'24218.6 090 / 181018.010.8 23.0 25.0
2017-Mar-13 02:00S 35°30' E 157°00'1111.5 040 / 141020.010.8 22.0 24.0
2017-Mar-13 01:00S 35°36' E 157°12'17119.0 050 / 181020.010.8 22.0 24.0
2017-Mar-12 16:00S 36°36' E 160°30'8721.7 070 / 81016.0 18.0 21.0
2017-Mar-12 12:00S 37°06' E 162°12'1615.6 180 / 91015.010.8 17.0 20.0
2017-Mar-12 11:00S 37°12' E 162°30'4020.0 190 / 161015.010.8 17.0 20.0
2017-Mar-12 09:00S 37°24' E 163°18'26819.1 200 / 271014.010.8 17.0 21.0
2017-Mar-11 19:00S 39°00' E 168°36'2019.6 270 / 5999.0 0.5 17.0 20.0
2017-Mar-11 18:00S 39°06' E 169°00'3517.3 040 / 5999.0 0.3 17.5 19.5
2017-Mar-11 16:00S 39°18' E 169°42'21319.3 998.0 17.0 19.0
2017-Mar-11 05:00S 40°36' E 174°00'80 2.2 150 / 301003.010.8 15.0 18.0
2017-Mar-09 16:00S 41°54' E 174°24'6015.0 080 / 201020.0 5.4 16.0
2017-Mar-09 12:00S 42°48' E 173°48'1514.9 1023.0 15.0 17.2
2017-Mar-09 11:00S 43°00' E 173°36'   010 / 181023.0 15.0 17.0

Dump ship's entire track history